Volver al catálogo

SATCOM 3 DEB

ActivoHEO
NORAD 29002·DEBRIS·🇺🇸 United States

Lanzado Dec 7, 1979 desde Cape Canaveral Space Force Station

Loading…

Próximos Pases (próximas 24 horas)

TLE

ActualizadoSource: Space-Track

Época: Sep 13, 2026, 22:15 UTC

1 29002U 79101E   26256.92717610 -.00000161  00000-0  00000+0 0  9993
2 29002   8.7027  86.3236 4821700  98.4943  46.5131  1.81877831137090

Sigue SATCOM 3 DEB en tiempo real con AllMySat

Download on the App Store